Regional Weather Roundup
Issued by NWS Sioux Falls, SD

Home | Current Version | Previous Version | Text Only | Print | Product List | Glossary On
Versions: 1 2 3 4 5 6 7 8 9 10 11 12 13 14 15 16 17 18 19 20 21 22 23 24 25 26 27 28 29 30 31 32 33 34 35 36 37 38 39 40 41 42 43 44 45 46 47 48 49 50
234
ASUS43 KFSD 201510
RWRFSD

WEATHER ROUNDUP FOR SE SOUTH DAKOTA/SW MINNESOTA/NW IOWA
NATIONAL WEATHER SERVICE SIOUX FALLS SD
1000 AM CDT WED SEP 20 2017

NOTE: "FAIR" INDICATES FEW OR NO CLOUDS BELOW 12,000 FEET WITH NO
SIGNIFICANT WEATHER AND OR OBSTRUCTIONS TO VISIBILITY.


SDZ038>040-050-052>070-201600-
SOUTHEAST SOUTH DAKOTA

CITY           SKY/WX    TMP DP  RH WIND       PRES   REMARKS
BROOKINGS      SUNNY     57  49  74 NW14      29.82
CHAMBERLAIN    SUNNY     59  49  67 SW7       29.86S
HURON          SUNNY     60  46  59 W10       29.83R
MADISON        FAIR      55  50  82 NW16      29.83R
MITCHELL       SUNNY     60  51  72 W12       29.84S
SIOUX FALLS    MOSUNNY   61  52  72 NW14      29.83R
WINNER         FAIR      60  47  61 SW8       29.86S
YANKTON        SUNNY     60  51  72 NW13      29.84R
$$

MNZ071-072-080-081-089-090-097-098-201600-
SOUTHWEST MINNESOTA

CITY           SKY/WX    TMP DP  RH WIND       PRES   REMARKS
FAIRMONT       SUNNY     66  56  70 NW10      29.77R
JACKSON        SUNNY     63  54  72 NW15      29.79R
LUVERNE        SUNNY     57  46  67 NW13      29.83R
MARSHALL       SUNNY     61  50  67 NW15      29.80R
MONTEVIDEO     SUNNY     63  63 100 NW10G18   29.78R
PIPESTONE      SUNNY     57  48  72 NW12G18   29.82R
REDWOOD FALLS  MOSUNNY   63  54  72 NW14G20   29.76R
TRACY          SUNNY     61  55  79 NW10G17   29.81R
WINDOM         SUNNY     63  54  72 NW13G18   29.79R
WORTHINGTON    SUNNY     60  52  74 NW16      29.81R
$$

IAZ001>003-012>014-020>022-031-032-NEZ013-014-SDZ071-201600-
NORTHWEST IOWA

CITY           SKY/WX    TMP DP  RH WIND       PRES   REMARKS
CHEROKEE       SUNNY     64  57  76 NW8       29.81R
DENISON        SUNNY     68  55  64 NW13      29.81R
ESTHERVILLE    SUNNY     64  57  78 NW9       29.77R
LE MARS        SUNNY     63  54  72 NW12      29.82R
ORANGE CITY    SUNNY     63  55  77 NW14      29.82R
SHELDON        SUNNY     61  54  77 NW13      29.80R
SIOUX CITY     SUNNY     63  55  75 NW15      29.83R
SPENCER        SUNNY     64  56  75 NW17      29.79R
STORM LAKE     SUNNY     64  54  68 NW14      29.80R
$$

ABBREVIATIONS USED IN REMARKS
   TC - TEMPERATURE IN CELSIUS
  WCI - WIND CHILL INDEX
   HX - HEAT INDEX
  VSB - VISIBILITY





USA.gov is the U.S. government's official web portal to all federal, state and local government web resources and services.